Flag for Norway Weather past 2 weeks in Orkanger/Fannrem, Norway

Now
47 °F

Cool.


Feels Like: 46 °F
Forecast: 37 / 48 °F
Wind: 3 mph from South

Location: Vinjeora Ii

Current Time: Mar 28, 2015 at 11:06:05 AM

Latest Report: Mar 28, 2015 at 10:00 AM


Visibility: N/A

Pressure: 29.71 "Hg

Humidity: 35%

Dew point: 21 °F

Location of Orkanger/FannremLocation

Historic Weather in Orkanger/Fannrem — Graph

°F

Orkanger/Fannrem temperature yesterday

Maximum temperature yesterday: 46 °F (at 4:00 PM)
Minimum temperature yesterday: 35 °F (at 5:00 AM)
Average temperature yesterday: 40 °F

Past Weeks' High & Low Weather Summary

 TemperatureHumidityPressure
High54 °F (Mar 23, 11:00 AM)93% (Mar 20, 5:00 AM)30.89 "Hg (Mar 20, 5:00 AM)
Low26 °F (Mar 21, 8:00 AM)26% (Mar 15, 5:00 PM)29.15 "Hg (Mar 23, 11:00 AM)
Average40 °F54%30.21 "Hg
* Reported Mar 13 9:00 AM — Mar 28 9:00 AM, Orkanger/Fannrem, Weather by CustomWeather, © 2015

Note: Actual official high and low records may vary slightly from our data, if they occured in-between our weather recording intervals... More about our weather records

Advertising

Orkanger/Fannrem weather history for previous 24 hours

 ConditionsComfort  
Time TempWeatherWind HumidityBarometerVisibility
9:00 AM
Sat, Mar 28
46 °FCool.5 mph35%29.73 "HgN/A
8:00 AM43 °FQuite cool.5 mph41%29.75 "HgN/A
7:00 AM40 °FChilly.6 mph45%29.76 "HgN/A
6:00 AM39 °FChilly.5 mph46%29.76 "HgN/A
5:00 AM38 °FChilly.3 mph48%29.78 "HgN/A
4:00 AM37 °FChilly.3 mph52%29.80 "HgN/A
3:00 AM34 °FChilly.1 mph63%29.82 "HgN/A
2:00 AM37 °FChilly.2 mph55%29.82 "HgN/A
1:00 AM37 °FChilly.3 mph55%29.82 "HgN/A
12:00 AM38 °FChilly.3 mph52%29.82 "HgN/A
11:00 PM
Fri, Mar 27
39 °FChilly.3 mph51%29.82 "HgN/A
9:00 PM40 °FChilly.3 mph49%29.81 "HgN/A
8:00 PM41 °FQuite cool.3 mph50%29.80 "HgN/A
7:00 PM38 °FChilly.1 mph66%29.79 "HgN/A
6:00 PM43 °FQuite cool.No wind52%29.78 "HgN/A
5:00 PM44 °FQuite cool.1 mph44%29.77 "HgN/A
4:00 PM46 °FCool.1 mph38%29.78 "HgN/A
3:00 PM45 °FCool.2 mph37%29.78 "HgN/A
2:00 PM44 °FQuite cool.2 mph40%29.78 "HgN/A
1:00 PM44 °FQuite cool.3 mph41%29.79 "HgN/A
12:00 PM43 °FQuite cool.3 mph44%29.80 "HgN/A
11:00 AM41 °FQuite cool.2 mph48%29.80 "HgN/A
Weather by CustomWeather, © 2015

See weather overviewHow to use our weather pages